Location: Central Falls
(41.8900°N, 71.3929°W)
Time: 08:26:45
(UTC+00:00)

Tiros 1 despin weight - Pass Details

Date: 07 December 2023
Orbit: 581 x 624 km, 48.2° (Epoch: 29 February)

Event Time Altitude Azimuth Distance (km) Brightness Sun altitude
Rises 22:41:12 0° 254° (WSW) 2,806 ? -15.6°
Reaches altitude 10° 22:43:30 10° 258° (WSW) 1,902 ? -16.0°
Maximum altitude 22:47:48 59° 339° (NNW) 672 ? -16.8°
Enters shadow 22:49:41 31° 46° (NE) 1,026 ? -17.1°
Drops below altitude 10° 22:52:06 10° 59° (ENE) 1,897 - -17.6°
Sets 22:54:24 0° 64° (ENE) 2,798 - -18.0°
